Read MPEC 2005-V75
Read MPEC 2005-V77
M.P.E.C. 2005-V76 Issued 2005 Nov. 12, 04:37 UT
The Minor Planet Electronic Circulars contain information on unusual
minor planets and routine data on comets. They are published
on behalf of Commission 20 of the International Astronomical Union by the
Minor Planet Center, Smithsonian Astrophysical Observatory,
Cambridge, MA 02138, U.S.A.
Supported in part by the Brinson Foundation
Supported in part by the TABASGO Foundation
Prepared using the Tamkin Foundation Computer Network
MPC@CFA.HARVARD.EDU
URL http://cfa-www.harvard.edu/iau/mpc.html ISSN 1523-6714
2005 VT5
Observations:
K05V05T C2005 11 06.26283 02 45 49.90 +14 23 30.5 19.5 EV076704
K05V05T C2005 11 06.30025 02 45 46.15 +14 22 26.8 19.7 EV076704
K05V05T C2005 11 06.31272 02 45 44.93 +14 22 05.9 19.8 EV076704
K05V05T* C2005 11 10.28596 02 39 23.11 +12 27 33.4 18.6 V EV076703
K05V05T C2005 11 10.29242 02 39 22.46 +12 27 23.4 19.2 V EV076703
K05V05T C2005 11 10.29882 02 39 21.78 +12 27 12.3 20.1 V EV076703
K05V05T C2005 11 10.30529 02 39 21.09 +12 27 01.9 19.3 V EV076703
K05V05T C2005 11 10.36534 02 39 15.04 +12 25 17.3 20.2 V EV076703
K05V05T C2005 11 10.37226 02 39 14.47 +12 25 03.8 19.7 V EV076703
K05V05T C2005 11 10.37917 02 39 13.71 +12 24 50.8 19.4 V EV076703
K05V05T C2005 11 10.38605 02 39 13.06 +12 24 40.4 20.1 V EV076703
K05V05T C2005 11 11.22231 02 37 53.91 +12 00 24.9 19.3 R EV076649
K05V05T C2005 11 11.22586 02 37 53.65 +12 00 17.6 19.7 R EV076649
K05V05T C2005 11 11.22942 02 37 53.26 +12 00 12.5 19.6 R EV076649
K05V05T C2005 11 11.23035 02 37 53.10 +12 00 09.0 19.3 R EV076734
K05V05T C2005 11 11.23297 02 37 52.83 +12 00 05.7 19.7 R EV076649
K05V05T C2005 11 11.24210 02 37 51.95 +11 59 50.5 20.0 R EV076734
K05V05T C2005 11 11.25610 02 37 50.49 +11 59 25.3 20.5 R EV076734
K05V05T C2005 11 11.36457 02 37 40.07 +11 56 18.1 20.0 R EV076854
K05V05T C2005 11 11.37421 02 37 39.03 +11 56 01.6 19.9 R EV076854
K05V05T C2005 11 11.38382 02 37 38.13 +11 55 43.7 20.0 R EV076854
K05V05T C2005 11 11.97871 02 36 42.09 +11 38 27.7 EV076204
K05V05T C2005 11 11.98736 02 36 41.28 +11 38 12.9 19.2 R EV076204
K05V05T C2005 11 12.01441 02 36 38.62 +11 37 25.7 EV076204
Observer details:
204 Schiaparelli Observatory. Observer L. Buzzi. 0.60-m f/4.64 Newtonian
reflector + CCD.
649 Powell Observatory, Louisburg. Observers R. Fredrick, R. Trentman.
0.75-m Newtonian reflector + CCD.
703 Catalina Sky Survey. Observer R. Hill. Measurers E. C. Beshore,
E. J. Christensen, G. J. Garradd, A. D. Grauer, R. E. Hill, R. A. Kowalski,
S. M. Larson, R. H. McNaught. 0.68-m Schmidt + CCD.
704 Lincoln Laboratory ETS, New Mexico. Observers M. Bezpalko, L. Manguso,
D. Torres, R. Kracke, A. Milner, H. Love. Measurers J. Stuart, R. Sayer,
J. Evans, J. Kommers. 1.0-m f/2.15 reflector + CCD.
734 Farpoint Observatory. Observer D. Tibbets. 0.7-m reflector + CCD.
854 Sabino Canyon Observatory, Tucson. Observer J. E. McGaha. 0.36-m f/10.0
Schmidt-Cassegrain + CCD.
Orbital elements:
2005 VT5
Epoch 2005 Nov. 6.0 TT = JDT 2453680.5 MPC
M 245.68479 (2000.0) P Q
n 0.55988716 Peri. 319.90569 -0.97293693 +0.00078884
a 1.4579268 Node 221.94606 +0.03181878 -0.99001064
e 0.2673720 Incl. 20.22389 -0.22886962 -0.14099045
P 1.76 H 19.1 G 0.15
From 24 observations 2005 Nov. 6-12.
Ephemeris:
2005 VT5 a,e,i = 1.46, 0.27, 20 q = 1.0681
Date TT R. A. (2000) Decl. Delta r Elong. Phase V
2005 11 06 02 46.25 +14 31.1 0.699 1.690 178.5 0.9 19.6
2005 11 16 02 30.52 +09 42.9 0.690 1.663 164.0 9.4 20.0
2005 11 26 02 17.10 +05 13.7 0.706 1.634 149.1 18.1 20.3
2005 12 06 02 07.95 +01 33.8 0.743 1.602 135.4 25.6 20.7
2005 12 16 02 03.92 -01 04.7 0.795 1.569 123.4 31.6 20.9
2005 12 26 02 04.87 -02 45.4 0.854 1.535 113.1 36.1 21.2
2006 01 05 02 10.32 -03 37.6 0.916 1.498 104.1 39.5 21.4
2006 01 15 02 19.66 -03 52.0 0.976 1.461 96.4 42.0 21.5
2006 01 25 02 32.27 -03 38.3 1.032 1.422 89.7 43.8 21.6
2006 02 04 02 47.74 -03 03.8 1.081 1.383 83.9 45.1 21.7
2006 02 14 03 05.75 -02 14.8 1.122 1.344 78.9 46.1 21.7
2006 02 24 03 26.06 -01 16.1 1.154 1.304 74.5 47.0 21.8
2006 03 06 03 48.57 -00 11.2 1.176 1.266 70.9 47.8 21.8
2006 03 16 04 13.24 +00 56.3 1.189 1.228 67.8 48.6 21.7
2006 03 26 04 40.04 +02 03.8 1.193 1.193 65.3 49.4 21.7
2006 04 05 05 09.06 +03 08.8 1.190 1.160 63.3 50.4 21.7
2006 04 15 05 40.31 +04 08.8 1.180 1.131 61.8 51.4 21.6
2006 04 25 06 13.82 +05 01.6 1.165 1.107 60.8 52.5 21.6
2006 05 05 06 49.62 +05 45.0 1.148 1.088 60.2 53.5 21.5
2006 05 15 07 27.57 +06 16.5 1.132 1.075 59.9 54.4 21.5
2006 05 25 08 07.44 +06 34.0 1.118 1.069 60.0 55.1 21.5
2006 06 04 08 48.88 +06 35.3 1.110 1.069 60.2 55.4 21.5
2006 06 14 09 31.30 +06 19.3 1.110 1.077 60.7 55.3 21.5
2006 06 24 10 14.08 +05 45.7 1.120 1.091 61.2 54.7 21.5
2006 07 04 10 56.57 +04 55.4 1.140 1.111 61.7 53.7 21.6
2006 07 14 11 38.15 +03 50.8 1.170 1.136 62.1 52.3 21.6
2006 07 24 12 18.42 +02 35.2 1.211 1.165 62.4 50.6 21.7
2006 08 03 12 57.16 +01 12.1 1.262 1.199 62.4 48.6 21.8
2006 08 13 13 34.29 -00 14.5 1.320 1.234 62.2 46.6 21.9
2006 08 23 14 09.87 -01 41.2 1.386 1.272 61.8 44.5 22.0
2006 09 02 14 44.07 -03 04.7 1.459 1.311 61.0 42.3 22.2
Brian G. Marsden (C) Copyright 2005 MPC M.P.E.C. 2005-V76
Read MPEC 2005-V75
Read MPEC 2005-V77
Our Web policy. Index to the CBAT/MPC/ICQ pages.